Overview Statistics Trail Chart Weather Telemetry Raw packets
 

This is the latest recevied weather packets stored in our database for station/object I8ZSE-10. If no packets are shown the sender has not sent any weather packets the latest 10 day(s).

<< 15 16 17 18 19 20 21 >>
Time Temp. Humidity Pressure Rain* Wind** Luminosity Snow
1788420030 23.89° C 52% - 0 mm - - -
1788419430 24.44° C 53% - 0 mm - - -
1788418830 23.89° C 55% - 0 mm - - -
1788418230 23.89° C 59% - 0 mm - - -
1788417630 23.33° C 61% - 0 mm - - -
1788417030 22.78° C 63% - 0 mm - - -
1788416430 22.22° C 65% - 0 mm - - -
1788415830 21.67° C 66% - 0 mm - - -
1788415231 21.67° C 64% - 0 mm - - -
1788414630 21.11° C 64% - 0 mm - - -
1788414030 21.11° C 66% - 0 mm - - -
1788413430 21.11° C 65% - 0 mm - - -
1788412830 20.56° C 67% - 0 mm - - -
1788412230 20.56° C 66% - 0 mm - - -
1788411630 20.56° C 67% - 0 mm - - -
1788411030 21.11° C 64% - 0 mm - - -
1788410430 20.56° C 66% - 0 mm - - -
1788409830 20.56° C 67% - 0 mm - - -
1788409230 20° C 69% - 0 mm - - -
1788408630 20.56° C 68% - 0 mm - - -
1788408030 20.56° C 67% - 0 mm - - -
1788407430 20.56° C 64% - 0 mm - - -
1788406830 20.56° C 69% - 0 mm - - -
1788406230 20.56° C 68% - 0 mm - - -
1788405630 20.56° C 63% - 0 mm - - -

* Rain latest hour (hover to see other rain measurements)
** Current wind speed in m/s (hover to see current wind gust speed)